Location: Unspecified
(48.8656°N, 0.0000°E)
Time: 05:56:31
(UTC+00:00)

SR - Pass Details

Date: 02 July 2019
Orbit: 575 x 881 km, 66.7° (Epoch: 12 October)

Event Time Altitude Azimuth Distance (km) Brightness Sun altitude
Rises 10:15:09 0° 320° (NW) 3,041 ? 56.4°
Reaches altitude 10° 10:17:27 10° 314° (NW) 2,169 ? 56.7°
Maximum altitude 10:22:10 45° 242° (WSW) 1,003 ? 57.3°
Drops below altitude 10° 10:27:16 10° 171° (S) 2,350 ? 57.9°
Sets 10:29:52 0° 165° (SSE) 3,322 ? 58.2°
